Location: Newark
(27.9700°N, 83.2300°E)
Time: 11:08:54
(UTC+00:00)

LightSail 2 - Visible Passes

Search period start: 23 February 2020 00:00
Search period end: 04 March 2020 00:00
Orbit: 699 x 722 km, 24.0° (Epoch: 22 February)

Date Brightness Start Highest point End Pass type
(mag) Time Alt. Az. Time Alt. Az. Time Alt. Az.
23 Feb 5.9 22:54:53 44° SSE 22:54:53 44° SSE 22:59:02 10° ESE visible
24 Feb 7.9 21:59:45 13° ESE 21:59:45 13° ESE 22:00:18 10° ESE visible
24 Feb 6.2 23:38:40 25° SW 23:40:29 32° SSW 23:45:04 10° SE visible
25 Feb 6.6 22:43:33 29° SSE 22:43:33 29° SSE 22:46:32 10° SE visible
26 Feb 7.0 00:23:26 10° WSW 00:26:48 17° SSW 00:30:10 10° SSE visible
26 Feb 6.5 23:27:22 22° SSW 23:28:05 23° SSW 23:32:05 10° SSE visible
27 Feb 7.3 22:32:17 17° SSE 22:32:17 17° SSE 22:33:44 10° SE visible
28 Feb 7.4 00:13:17 10° SW 00:14:19 11° SSW 00:15:20 10° SSW visible
28 Feb 7.1 23:16:10 15° SSW 23:16:10 15° SSW 23:18:26 10° S visible
01 Mar 7.3 14:14:44 10° S 14:15:50 13° S 14:15:50 13° S visible
02 Mar 7.3 13:18:14 10° SSE 13:18:41 10° SSE 13:19:08 10° SSE visible
02 Mar 7.7 14:59:19 10° SW 14:59:44 12° SW 14:59:44 12° SW visible
03 Mar 6.6 14:00:56 10° SSW 14:04:40 22° SSE 14:04:40 22° SSE visible
